Regional Weather Roundup
Issued by NWS

Home | Current Version | Previous Version | Graphics & Text | Print | Product List | Glossary On
Versions: 1 2 3 4 5 6 7 8 9 10 11 12 13 14 15 16 17 18 19 20 21 22 23 24 25 26 27 28 29 30 31 32 33 34 35 36 37 38 39 40 41 42 43 44 45 46 47 48 49 50
000
ASUS43 KMPX 120410
RWRMN
WEATHER ROUNDUP FOR MINNESOTA
NATIONAL WEATHER SERVICE TWIN CITIES/CHANHASSEN MN
1000 PM CST MON DEC 11 2017


NOTE: "FAIR" INDICATES FEW OR NO CLOUDS BELOW 12,000 FEET WITH NO
SIGNIFICANT WEATHER AND/OR OBSTRUCTIONS TO VISIBILITY. N/A MEANS
CURRENT SKY AND/OR WEATHER CONDITIONS ARE NOT AVAILABLE.

MNZ060>063-068>070-120500-
   Twin Cities Metro

CITY           SKY/WX    TMP DP  RH WIND       PRES   REMARKS
TWIN CITIES    CLEAR     20  10  65 N13       30.21R WCI   7
ST PAUL        CLEAR     19  10  68 NW13      30.22R WCI   6
CRYSTAL        CLEAR     19   8  62 NW17      30.21R WCI   4
BLAINE         CLEAR     19  10  68 NW8       30.20R WCI   9
LAKEVILLE      CLEAR     18   9  68 NW13G22   30.19R WCI   4
EDEN PRAIRIE   CLEAR     20  12  71 NW16G23   30.20R WCI   6
SOUTH ST PAUL  CLEAR     20  11  66 NW9G20    30.20R WCI  10
LAKE ELMO      FAIR      19  10  68 NW12      30.20R WCI   7
$$
MNZ001>005-007-008-013>017-022>024-027-028-120500-
   Northwest Minnesota

CITY           SKY/WX    TMP DP  RH WIND       PRES   REMARKS
BEMIDJI        CLOUDY     2  -2  83 NW9       30.25S WCI -13
HALLOCK        CLOUDY     3   1  92 W6        30.31F WCI  -8
ROSEAU         CLOUDY     3   0  85 W5        30.27F WCI  -6
WARROAD        FLURRIES   0  -4  85 W3        30.26F
THIEF RVR FALL CLOUDY     3   0  87 NW3       30.30F
CROOKSTON      CLOUDY     5   1  85 CALM      30.33F
FOSSTON        LGT SNOW   0  -6  78 CALM      30.29F
DETROIT LAKES  LGT SNOW   7   3  85 N9        30.29F WCI  -7
MOORHEAD       CLOUDY     5   1  85 CALM      30.35F
PARK RAPIDS    CLOUDY     4  -1  80 NW13      30.24S WCI -13
MAHNOMEN       FAIR       2  -1  86 N5        30.30S WCI  -7
$$
MNZ006-009>011-018-025>026-120500-
   North Central Minnesota

CITY           SKY/WX    TMP DP  RH WIND       PRES   REMARKS
BAUDETTE       CLOUDY     1  -2  87 W7        30.23F WCI -12
FLAG ISLAND    CLOUDY     1  -2  85 NW8       30.23S WCI -12
INTL FALLS     CLEAR      3  -2  79 NW7       30.20S WCI  -9
WASKISH        CLOUDY     3   0  85 W5        30.26R WCI  -6
LONGVILLE      CLEAR      7   1  78 NW6       30.22S WCI  -3
GRAND RAPIDS   FLURRIES   7   3  84 NW12      30.21R WCI  -8
CRANE LAKE     MOCLDY     7   1  78 NW9       30.19S WCI  -7
ORR            CLOUDY     7   1  78 NW9G17    30.15R WCI  -7
COOK           CLOUDY     7   1  78 NW10G16   30.17R HAZE    WCI  -8
WALKER         FAIR       4  -1  81 NW12      30.24R WCI -12
$$
MNZ012-019>021-037-120500-
   Northeast Minnesota

CITY           SKY/WX    TMP DP  RH WIND       PRES   REMARKS
DULUTH         FLURRIES  10   3  73 NW15G22   30.10R WCI  -7
ELY            MOCLDY     9   0  66 NW10G23   30.10R WCI  -6
HIBBING        LGT SNOW   7   1  76 NW17G32   30.15R WCI -12
EVELETH        CLOUDY     8   0  67 NW18G25   30.14R WCI -10
DULUTH HARBOR  CLOUDY    16   9  73 NW14      30.19R WCI   1
TWO HARBORS    CLEAR     14   5  67 NW6       30.10R WCI   5
SILVER BAY     CLEAR     10   1  67 NW6       30.09R WCI   1
GRAND MARAIS     N/A     12   1  61 VRB3      30.12R
G MARAIS ARPRT CLOUDY     3  -6  66 NW14G21   29.99R WCI -15
$$
MNZ029>031-032-039>041-046>048-054>057-064-120500-
   West Central Minnesota

CITY           SKY/WX    TMP DP  RH WIND       PRES   REMARKS
FERGUS FALLS   CLOUDY     7   3  85 N9        30.36S WCI  -7
WHEATON        CLEAR     10   7  85 NW6       30.37S WCI   1
MORRIS         CLEAR     10   5  79 NW15      30.31S WCI  -6
ALEXANDRIA     CLOUDY     8   3  80 N12       30.27R WCI  -7
ELBOW LAKE     FAIR       9   4  83 NW13      30.32R WCI  -7
WADENA         CLOUDY     3   1  92 NW7       30.27R WCI  -9
GLENWOOD       CLEAR      9   5  85 NW9       30.27S WCI  -5
APPLETON       CLEAR     14   7  73 NW9       30.34R WCI   2
BENSON         CLEAR     10   5  79 N9        30.32R WCI  -2
ORTONVILLE     CLEAR     12   9  85 NW9       30.34S WCI   0
MADISON        CLEAR     16  12  86 NW7       30.35S WCI   6
WILLMAR        FAIR      12   9  85 NW13      30.29R WCI  -3
$$
MNZ033>034-036-042>043-049>051-058-059-120500-
   Central Minnesota

CITY           SKY/WX    TMP DP  RH WIND       PRES   REMARKS
ST CLOUD       CLEAR     13   7  77 NW10      30.23R WCI   0
SAUK CENTRE    FAIR       8   4  80 NW14      30.27R WCI  -8
PAYNESVILLE    CLEAR     11   7  85 NW10      30.26S WCI  -3
AITKIN         FLURRIES   9   3  78 NW7       30.19R WCI  -3
PINE RIVER     CLOUDY     7   1  78 NW8       30.26R WCI  -6
BRAINERD       CLEAR     10   3  73 NW14      30.23R WCI  -6
STAPLES        CLOUDY     3   1  92 NW10      30.25R WCI -12
LONG PRAIRIE   FAIR       9   3  78 W12       30.26R WCI  -6
LITTLE FALLS   CLEAR     12   3  67 NW8       30.25R WCI   1
LITCHFIELD     CLEAR     12   9  85 NW13      30.26R WCI  -3
BUFFALO        CLEAR     16  10  76 NW12      30.24R WCI   3
MAPLE LAKE     CLEAR     16  10  79 NW13G21   30.24R WCI   2
HUTCHINSON     CLOUDY    15  10  79 NW14      30.27R WCI   0
$$
MNZ037-044-045-052-053-120500-
   East Central Minnesota

CITY           SKY/WX    TMP DP  RH WIND       PRES   REMARKS
PRINCETON      CLEAR     16   9  73 NW10G20   30.21R WCI   3
MORA           PTCLDY    14   9  79 NW10      30.20R WCI   1
CAMBRIDGE      CLEAR     16   7  67 W7        30.21R WCI   6
RUSH CITY      PTCLDY    15   8  74 NW7       30.20R WCI   5
MOOSE LAKE     CLEAR     12   5  73 NW10G17   30.16R WCI  -1
HINCKLEY       FAIR      16   9  73 NW12      30.18R WCI   3
CLOQUET        CLEAR     10   1  67 NW16G24   30.13R WCI  -7
MCGREGOR       MOCLDY    12   9  85 NW12      30.19R WCI  -2
$$
MNZ071>073-080-081-089-090-097-098-120500-
   Southwest Minnesota

CITY           SKY/WX    TMP DP  RH WIND       PRES   REMARKS
MONTEVIDEO     CLEAR     12   7  79 N14       30.33R WCI  -3
GRANITE FALLS  CLEAR     15   8  73 NW15      30.34S WCI   0
CANBY          CLEAR     15  12  88 W8        30.35S WCI   5
MARSHALL       CLEAR     14  10  84 NW15      30.33R WCI  -1
REDWOOD FALLS  CLEAR     14   7  73 NW12G23   30.30R WCI   0
OLIVIA         CLEAR     14  10  85 NW14      30.28S WCI  -1
PIPESTONE      CLEAR     16  12  86 N9G16     30.30R WCI   4
WINDOM           N/A     16   1  53 NW23      30.26R WCI  -2
WORTHINGTON    CLEAR     15   9  76 N21       30.28R WCI  -2
JACKSON        PTCLDY    16  10  79 MISG      30.25R
TRACY          CLEAR     16  10  79 NW17      30.30R WCI   0
SLAYTON        CLEAR     15  10  82 NW16G22   30.29R WCI  -1
$$
MNZ065>067-074>077-082>085-091>093-120500-
   South Central Minnesota

CITY           SKY/WX    TMP DP  RH WIND       PRES   REMARKS
MANKATO        CLEAR     17  12  80 NW16      30.23R WCI   2
NEW ULM        CLEAR     14   9  79 NW18      30.26R WCI  -3
ST JAMES       CLEAR     14  10  85 NW18      30.27R WCI  -3
FAIRMONT       CLEAR     15  11  83 NW23G29   30.24R WCI  -3
GLENCOE        CLEAR     17  12  82 NW13      30.24R WCI   4
FARIBAULT      CLEAR     19  12  73 NW8       30.19R WCI   9
OWATONNA       CLEAR     19  12  73 NW13      30.17R WCI   7
WASECA         CLEAR     19  16  86 NW17G24   30.21R WCI   4
ALBERT LEA     CLEAR     21  16  79 NW9G16    30.17R WCI  11
$$
MNZ078>079-086>088-094>096-120500-
   Southeast Minnesota

CITY           SKY/WX    TMP DP  RH WIND       PRES   REMARKS
ROCHESTER      CLEAR     19  12  74 N22G31    30.12R WCI   2
RED WING       CLEAR     21   9  58 NW8       30.17R WCI  12
STANTON        CLEAR     21  12  66 NW16      30.18R WCI   7
DODGE CENTER   PTCLDY    19  12  73 NW17      30.14R WCI   4
WINONA           N/A     23  12  63 NW13G21   30.14R WCI  11
AUSTIN         CLEAR     21  12  68 N20G25    30.14R WCI   6
PRESTON        PTCLDY    21  14  74 NW15      30.10R WCI   7
$$
ABBREVIATIONS USED IN REMARKS
   TC - TEMPERATURES IN CELSIUS
  WCI - WIND CHILL INDEX
   HX - HEAT INDEX
  VSB - VISIBILITY
$$




USA.gov is the U.S. government's official web portal to all federal, state and local government web resources and services.